Location: Great Malvern
(52.1167°N, 2.3167°W)
Time: 15:02:27
(UTC+00:00)

NOSS 8 (E) - Pass Details

Date: 18 September 2020
Orbit: 385 x 1787 km, 63.3° (Epoch: 22 October)

Event Time Altitude Azimuth Distance (km) Brightness Sun altitude
Rises 19:07:48 0° 220° (SW) 2,430 8.5 -8.7°
Reaches altitude 10° 19:09:57 10° 218° (SW) 1,479 7.3 -9.0°
Maximum altitude 19:13:04 73° 134° (SE) 411 4.0 -9.5°
Drops below altitude 10° 19:16:06 10° 49° (NE) 1,438 6.6 -9.9°
Enters shadow 19:17:57 - 47° (NE) 2,254 7.6 -10.2°
